Location: Columbia
(38.9520°N, 92.3340°W)
Time: 14:48:26
(UTC-05:00)

Iridium 52 - Visible Passes

Search period start: 23 August 2014 00:00
Search period end: 02 September 2014 00:00
Orbit: 776 x 779 km, 86.4° (Epoch: 23 August)

Date Brightness Start Highest point End Pass type
(mag) Time Alt. Az. Time Alt. Az. Time Alt. Az.
24 Aug 9.3 05:45:02 10° ESE 05:47:42 14° ENE 05:50:22 10° NE visible
27 Aug 8.9 05:43:49 10° SE 05:47:36 21° E 05:51:23 10° NE visible
28 Aug 9.5 05:13:12 10° E 05:14:26 11° ENE 05:15:40 10° ENE visible
30 Aug 8.2 05:43:04 10° SE 05:47:32 30° E 05:52:01 10° NNE visible
31 Aug 9.0 05:11:10 10° ESE 05:14:18 16° E 05:17:26 10° NE visible
